Tracking 28790 objects as of 19-Apr-2024
HD Live streaming from Space Station
objects crossing your sky now

SL-6 R/B(2)

Track SL-6 R/B(2) now!


NORAD ID: 12311
Int'l Code: 1981-016E
Perigee: 4,682.6 km
Apogee: 34,983.6 km
Inclination: 69.6 °
Period: 703.6 minutes
Semi major axis: 26204 km
RCS: 5.1304 m2 (large)
Launch date: February 19, 1981
Source: Commonwealth of Independent States (former USSR) (CIS)
Launch site: PLESETSK MISSILE AND SPACE COMPLEX (PKMTR)

Note: This is a ROCKET BODY
Your satellite tracking list
Your tracking list is empty




NASA's NSSDC Master Catalog

Two Line Element Set (TLE):
1 12311U 81016E   24109.19582758  .00000281  00000-0  00000-0 0  9996
2 12311  69.6166  69.3799 5781744 341.9221   3.8648  2.04667612322645
Source of the keplerian elements: AFSPC